Weather Roundup
Issued by NWS Chicago, IL

Home | Current Version | Previous Version | Text Only | Print | Product List | Glossary On
Versions: 1 2 3 4 5 6 7 8 9 10 11 12 13 14 15 16 17 18 19 20 21 22 23 24 25 26 27 28 29 30 31 32 33 34 35 36 37 38 39 40 41 42 43 44 45 46 47 48 49 50
000
NZUS59 KLOT 251321
HRRLOT

CHICAGO AREA WEATHER ROUNDUP
NATIONAL WEATHER SERVICE CHICAGO/ROMEOVILLE IL
800 AM CDT SAT APR 25 2015

NOTE: "FAIR" INDICATES FEW OR NO CLOUDS BELOW 12,000 FEET WITH NO
SIGNIFICANT WEATHER AND/OR OBSTRUCTIONS TO VISIBILITY.

* THESE STATIONS ARE NOT UNDER NWS QUALITY CONTROL. THEY ALSO MAY NOT
  REPORT WEATHER SUCH AS PRECIPITATION OR FOG.

ILZ005-006-012>014-019>023-251400-
NORTHEAST ILLINOIS

CITY           SKY/WX    TMP DP  RH WIND       PRES   REMARKS
OHARE          LGT RAIN  44  38  79 E12G18    29.80R
MIDWAY         LGT RAIN  46  40  79 E12       29.80S
AURORA         LGT RAIN  44  39  82 E14       29.77F
LANSING*       LGT RAIN  43  38  85 E12       29.81R
JOLIET*        RAIN      45  42  91 E12G17    29.78S
WAUKEGAN       CLOUDY    42  38  85 E10       29.82S
DUPAGE AIRPORT CLOUDY    44  38  79 E16       29.77S
WHEELING       CLOUDY    43  37  79 E12       29.83R
KANKAKEE*      HVY RAIN  43  42  96 NE13      29.75F
MORRIS*        RAIN      44  41  91 E14G24    29.72F
LEWIS AIRPORT* LGT RAIN  43  40  88 E15       29.76F
NORTHERLY IS     N/A     44  39  82 E13         N/A
$$

WIZ051-052-058>065-066-070>072-251400-
SOUTHEAST WISCONSIN

CITY           SKY/WX    TMP DP  RH WIND       PRES   REMARKS
MILWAUKEE      CLOUDY    40  35  83 NE13      29.87S
KENOSHA*       CLOUDY    42  38  85 E13       29.83F
RACINE*        CLOUDY    41  36  82 E12       29.86F
BURLINGTON     CLOUDY    41  36  83 E10       29.83R
WAUKESHA       CLOUDY    39  34  81 E12       29.86S
WEST BEND      CLOUDY    37  32  81 NE8       29.88S
$$

INZ001>003-010>013-019-020-251400-
NORTHWEST INDIANA

CITY           SKY/WX    TMP DP  RH WIND       PRES   REMARKS
GARY*          LGT RAIN  45  37  76 E12G23    29.81S
MICHIGAN CITY* NOT AVBL
RENSSELAER*    NOT AVBL
VALPARAISO     LGT RAIN  42  39  89 E17       29.80F
$$

LMZ740>746-251400-
SOUTHERN LAKE MICHIGAN

STATION/POSITION TIME  SKY/WX   TEMP WIND        PRES    VSBY
                                AIR  DIR/SP/G
                 (UTC)          (F)  (DEG/KT/KT) (MB)    (MI)
HARRISON CRIB    1300            41   90/ 17/ 19   N/A
BURNHAM HARBOR   1300            44   90/ 11/ 17   N/A
CALUMET HARBOR   1300            45  100/ 13/ 16   N/A
BURNS HARBOR     1300            44  100/ 14/ 22 1009.5F
MICHIGAN CITY    1300            44  100/ 16/ 24   N/A
$$

ABBREVIATIONS USED IN REMARKS
   TC - TEMPERATURE IN CELSIUS
  WCI - WIND CHILL INDEX
   HX - HEAT INDEX
  VSB - VISIBILITY
$$


USA.gov is the U.S. government's official web portal to all federal, state and local government web resources and services.